When you browse on this site, cookies collect data to enhance your experience and personalize the content and advertising you see.
Visit our Privacy Policy to learn more. By continuing to use the site, you agree to this use of cookies and data.
  • en France
  • Liste des pays
  • À 7 jours
  • Température de l'eau
  • Carte météo
  • Widgets météo
  • user-avatar
    Se connecter

    Météo par heure à Rostock

    Ce jour, 19 Septembre, Jeudi

    Heure Température Précipitation Vent Pression Humidité
    00:00 +8°C° 0.1 mm 5 m/s 766 mmHg 89%
    01:00 +7°C° 0 mm 4 m/s 766 mmHg 92%
    02:00 +7°C° 0.1 mm 4 m/s 767 mmHg 92%
    03:00 +7°C° 0.1 mm 4 m/s 767 mmHg 92%
    04:00 +7°C° 0.1 mm 4 m/s 767 mmHg 93%
    05:00 +7°C° 0 mm 4 m/s 767 mmHg 92%
    06:00 +7°C° 0 mm 4 m/s 767 mmHg 91%
    07:00 +8°C° 0 mm 4 m/s 768 mmHg 90%
    08:00 +10°C° 0 mm 4 m/s 768 mmHg 83%
    09:00 +12°C° 0 mm 5 m/s 768 mmHg 76%
    10:00 +13°C° 0 mm 5 m/s 768 mmHg 68%
    11:00 +14°C° 0 mm 5 m/s 769 mmHg 65%
    12:00 +14°C° 0 mm 5 m/s 769 mmHg 63%
    13:00 +14°C° 0 mm 5 m/s 769 mmHg 59%
    14:00 +14°C° 0 mm 5 m/s 769 mmHg 61%
    15:00 +14°C° 0 mm 5 m/s 769 mmHg 62%
    16:00 +13°C° 0 mm 4 m/s 769 mmHg 63%
    17:00 +12°C° 0 mm 4 m/s 769 mmHg 69%
    18:00 +11°C° 0 mm 3 m/s 769 mmHg 74%
    19:00 +10°C° 0 mm 3 m/s 769 mmHg 80%
    20:00 +9°C° 0 mm 3 m/s 770 mmHg 83%
    21:00 +9°C° 0 mm 3 m/s 770 mmHg 86%
    22:00 +8°C° 0 mm 4 m/s 770 mmHg 89%
    23:00 +8°C° 0 mm 4 m/s 770 mmHg 90%

    Demain, 20 Septembre, Vendredi

    Heure Température Précipitation Vent Pression Humidité
    00:00 +8°C° 0 mm 4 m/s 770 mmHg 91%
    01:00 +8°C° 0 mm 4 m/s 770 mmHg 92%
    02:00 +7°C° 0 mm 4 m/s 770 mmHg 92%
    03:00 +7°C° 0 mm 4 m/s 769 mmHg 92%
    04:00 +7°C° 0 mm 4 m/s 769 mmHg 92%
    05:00 +8°C° 0 mm 4 m/s 769 mmHg 89%
    06:00 +8°C° 0 mm 4 m/s 769 mmHg 86%
    07:00 +9°C° 0 mm 5 m/s 769 mmHg 83%
    08:00 +10°C° 0 mm 5 m/s 769 mmHg 81%
    09:00 +12°C° 0 mm 5 m/s 769 mmHg 78%
    10:00 +13°C° 0 mm 5 m/s 769 mmHg 76%
    11:00 +13°C° 0 mm 5 m/s 768 mmHg 75%
    12:00 +14°C° 0 mm 6 m/s 768 mmHg 75%
    13:00 +15°C° 0 mm 6 m/s 768 mmHg 74%
    14:00 +15°C° 0 mm 6 m/s 768 mmHg 75%
    15:00 +15°C° 0 mm 6 m/s 767 mmHg 76%
    16:00 +15°C° 0 mm 6 m/s 767 mmHg 77%
    17:00 +14°C° 0 mm 6 m/s 767 mmHg 83%
    18:00 +13°C° 0 mm 5 m/s 767 mmHg 89%
    19:00 +12°C° 0 mm 4 m/s 767 mmHg 94%
    20:00 +12°C° 0 mm 4 m/s 767 mmHg 95%
    21:00 +12°C° 0 mm 4 m/s 767 mmHg 95%
    22:00 +11°C° 0 mm 4 m/s 767 mmHg 96%
    23:00 +11°C° 0 mm 4 m/s 766 mmHg 96%

    Après-demain, 21 Septembre, Samedi

    Heure Température Précipitation Vent Pression Humidité
    00:00 +11°C° 0 mm 4 m/s 766 mmHg 96%
    01:00 +10°C° 0 mm 5 m/s 766 mmHg 96%
    02:00 +10°C° 0 mm 5 m/s 766 mmHg 97%
    03:00 +9°C° 0 mm 5 m/s 766 mmHg 97%
    04:00 +9°C° 0 mm 5 m/s 765 mmHg 97%
    05:00 +9°C° 0 mm 5 m/s 765 mmHg 97%
    06:00 +9°C° 0 mm 5 m/s 765 mmHg 97%
    07:00 +10°C° 0 mm 5 m/s 765 mmHg 97%
    08:00 +12°C° 0 mm 5 m/s 765 mmHg 91%
    09:00 +14°C° 0 mm 5 m/s 765 mmHg 85%
    10:00 +16°C° 0 mm 5 m/s 765 mmHg 79%
    11:00 +18°C° 0 mm 4 m/s 765 mmHg 73%
    12:00 +19°C° 0 mm 4 m/s 765 mmHg 67%
    13:00 +20°C° 0 mm 4 m/s 764 mmHg 61%
    14:00 +20°C° 0 mm 3 m/s 764 mmHg 60%
    15:00 +20°C° 0 mm 2 m/s 764 mmHg 60%
    16:00 +20°C° 0 mm 2 m/s 763 mmHg 59%
    17:00 +20°C° 0 mm 1 m/s 763 mmHg 66%
    18:00 +18°C° 0 mm 1 m/s 763 mmHg 74%
    19:00 +14°C° 0 mm 0 m/s 763 mmHg 81%
    20:00 +14°C° 0 mm 1 m/s 763 mmHg 83%
    21:00 +14°C° 0 mm 1 m/s 763 mmHg 84%
    22:00 +13°C° 0 mm 2 m/s 763 mmHg 85%
    23:00 +13°C° 0 mm 2 m/s 763 mmHg 86%

    22 Septembre, Dimanche

    Heure Température Précipitation Vent Pression Humidité
    00:00 +13°C° 0 mm 2 m/s 763 mmHg 87%
    01:00 +12°C° 0 mm 2 m/s 762 mmHg 87%
    02:00 +12°C° 0 mm 2 m/s 762 mmHg 87%
    03:00 +12°C° 0 mm 2 m/s 762 mmHg 86%
    04:00 +10°C° 0 mm 2 m/s 761 mmHg 86%
    05:00 +11°C° 0 mm 3 m/s 761 mmHg 84%
    06:00 +11°C° 0 mm 3 m/s 761 mmHg 82%
    07:00 +11°C° 0 mm 3 m/s 761 mmHg 80%
    08:00 +13°C° 0 mm 3 m/s 761 mmHg 71%
    09:00 +15°C° 0 mm 4 m/s 761 mmHg 63%
    10:00 +18°C° 0 mm 4 m/s 760 mmHg 55%
    11:00 +20°C° 0 mm 4 m/s 760 mmHg 51%
    12:00 +21°C° 0 mm 4 m/s 760 mmHg 48%
    13:00 +22°C° 0 mm 5 m/s 759 mmHg 44%
    14:00 +22°C° 0 mm 5 m/s 759 mmHg 48%
    15:00 +22°C° 0 mm 5 m/s 758 mmHg 51%
    16:00 +22°C° 0 mm 4 m/s 758 mmHg 55%
    17:00 +20°C° 0 mm 4 m/s 758 mmHg 60%
    18:00 +18°C° 0 mm 4 m/s 757 mmHg 65%
    19:00 +15°C° 0 mm 4 m/s 757 mmHg 70%
    20:00 +14°C° 0 mm 4 m/s 757 mmHg 70%
    21:00 +13°C° 0 mm 4 m/s 757 mmHg 70%
    22:00 +13°C° 0 mm 4 m/s 757 mmHg 70%
    23:00 +12°C° 0 mm 4 m/s 757 mmHg 71%

    23 Septembre, Lundi

    Heure Température Précipitation Vent Pression Humidité
    00:00 +12°C° 0 mm 4 m/s 757 mmHg 72%
    01:00 +11°C° 0 mm 4 m/s 757 mmHg 72%
    02:00 +11°C° 0 mm 4 m/s 756 mmHg 73%
    03:00 +11°C° 0 mm 4 m/s 756 mmHg 74%
    04:00 +11°C° 0 mm 4 m/s 756 mmHg 74%
    05:00 +11°C° 0 mm 4 m/s 756 mmHg 74%
    06:00 +11°C° 0 mm 4 m/s 756 mmHg 73%
    07:00 +11°C° 0 mm 4 m/s 756 mmHg 73%
    08:00 +13°C° 0 mm 4 m/s 756 mmHg 67%
    09:00 +15°C° 0 mm 4 m/s 756 mmHg 62%
    10:00 +18°C° 0 mm 4 m/s 756 mmHg 57%
    11:00 +19°C° 0 mm 3 m/s 756 mmHg 53%
    12:00 +20°C° 0 mm 3 m/s 756 mmHg 50%
    13:00 +22°C° 0 mm 3 m/s 756 mmHg 47%
    14:00 +22°C° 0 mm 3 m/s 756 mmHg 48%
    15:00 +23°C° 0 mm 2 m/s 755 mmHg 49%
    16:00 +23°C° 0 mm 2 m/s 755 mmHg 50%
    17:00 +20°C° 0 mm 2 m/s 756 mmHg 57%
    18:00 +18°C° 0 mm 2 m/s 756 mmHg 65%
    19:00 +16°C° 0 mm 2 m/s 756 mmHg 73%
    20:00 +15°C° 0 mm 2 m/s 756 mmHg 76%
    21:00 +14°C° 0 mm 2 m/s 756 mmHg 79%
    22:00 +14°C° 0 mm 2 m/s 757 mmHg 82%
    23:00 +14°C° 0 mm 2 m/s 757 mmHg 83%

    24 Septembre, Mardi

    Heure Température Précipitation Vent Pression Humidité
    00:00 +13°C° 0 mm 1 m/s 757 mmHg 84%
    01:00 +13°C° 0 mm 1 m/s 757 mmHg 85%
    02:00 +13°C° 0 mm 2 m/s 757 mmHg 88%
    03:00 +12°C° 0 mm 2 m/s 757 mmHg 90%
    04:00 +12°C° 0 mm 2 m/s 757 mmHg 93%
    05:00 +13°C° 0 mm 2 m/s 757 mmHg 94%
    06:00 +13°C° 0 mm 2 m/s 757 mmHg 95%
    07:00 +13°C° 0 mm 2 m/s 757 mmHg 97%
    08:00 +14°C° 0 mm 2 m/s 758 mmHg 92%
    09:00 +16°C° 0 mm 2 m/s 758 mmHg 88%
    10:00 +17°C° 0 mm 3 m/s 758 mmHg 84%
    11:00 +17°C° 0 mm 3 m/s 758 mmHg 83%
    12:00 +18°C° 0 mm 3 m/s 757 mmHg 82%
    13:00 +18°C° 0 mm 3 m/s 757 mmHg 81%
    14:00 +18°C° 0 mm 2 m/s 757 mmHg 79%
    15:00 +18°C° 0 mm 2 m/s 757 mmHg 76%
    16:00 +20°C° 0 mm 1 m/s 756 mmHg 73%
    17:00 +19°C° 0.1 mm 1 m/s 756 mmHg 78%
    18:00 +18°C° 0.1 mm 1 m/s 756 mmHg 84%
    19:00 +16°C° 0.1 mm 1 m/s 756 mmHg 89%
    20:00 +15°C° 0.1 mm 2 m/s 755 mmHg 90%
    21:00 +15°C° 0.1 mm 2 m/s 755 mmHg 90%
    22:00 +13°C° 0.1 mm 3 m/s 755 mmHg 91%
    23:00 +13°C° 0 mm 3 m/s 754 mmHg 89%
    Voir plus